Location: Newark
(35.6799°N, 139.7636°E)
Time: 14:09:34
(UTC+00:00)

Transit 2A - Pass Details

Date: 08 December 2019
Orbit: 601 x 957 km, 66.7° (Epoch: 18 January)

Event Time Altitude Azimuth Distance (km) Brightness Sun altitude
Rises 06:37:47 0° 344° (NNW) 2,873 8.8 7.8°
Reaches altitude 10° 06:40:13 10° 355° (N) 1,988 7.9 7.4°
Maximum altitude 06:44:10 30° 57° (ENE) 1,147 6.5 6.7°
Drops below altitude 10° 06:48:20 10° 119° (ESE) 2,110 8.1 6.0°
Sets 06:50:59 0° 130° (SE) 3,080 9.0 5.5°
